If you wish to contribute or participate in the discussions about articles you are invited to join SKYbrary as a registered user

 Actions

Kikai Airport

From SKYbrary Wiki

RJKI
Airport
ICAO: RJKI – IATA: KKX
Summary
Name Kikai Airport
Region Asia and Pacific
Territory Japan JP.gif
Location Kikai, Kagoshima Prefecture
Serving Kikaijima
Elevation 4.572 m
15 ft4.572 m
Coordinates 28° 19' 10.95" N, 129° 55' 39.38" E
Runways
Designator Length Width Surface ROPS
7/25 1313 m4,307.743 ft
30 m98.425 ft
ASP /


METAR
Observation RJKI 140300Z AUTO 04010KT 9999 FEW009 SCT010 28/25 Q1015
Station Kikai Island
Date/Time 14 October 2019 03:00:00
Wind direction 40°
Wind speed 10 kts
Lowest cloud amount few clouds
Temperature 28°C
Dew point 25°C
Humidity 83%
QNH 1015 hPa
Weather condition n/a

Kikai Airport, also known as Kikaijima Airport or Kikaiga Shima Airport, is located in Kikai, a town on Kikaijima (also known as Kikai Island, Kikaishima, Kikaigashima, etc.), one of the Amami Islands in the Kagoshima Prefecture of Japan.

Climatology

Humid Sub-tropical climate (Köppen climate classification Cfa)

Maps

Terrain

Loading map...

Airport Layout

Loading map...


Accidents & Serious Incidents at or in vicinity of RJKI

None on SKYbrary